Regional Weather Roundup
Issued by NWS Pendleton, OR

Home | Current Version | Previous Version | Text Only | Print | Product List | Glossary On
Versions: 1 2 3 4 5 6 7 8 9 10 11 12 13 14 15 16 17 18 19 20 21 22 23 24 25 26 27 28 29 30 31 32 33 34 35 36 37 38 39 40 41 42 43 44 45 46 47 48 49 50
000
ASUS46 KPDT 042225
RWRPDT
PENDLETON REGIONAL WEATHER ROUNDUP
NATIONAL WEATHER SERVICE PENDLETON OREGON
300 PM PDT MON MAY 4 2015

NOTE: FAIR INDICATES FEW OR NO CLOUDS BELOW 12,000 FEET WITH NO
SIGNIFICANT WEATHER AND/OR OBSTRUCTIONS TO VISIBILITY.

# INDICATES UNOFFICIAL STATION AND DATA

WAZ520-042310-
EAST SLOPES OF WASHINGTON CASCADES

CITY            SKY/WX      TMP DP  RH  WIND    PRES   REMARKS
#BULLFROG 2SW   N/A         60  41  49  W2      27.45R
#BUMPING DAM    N/A         59  N/A N/A S8      N/A
#CLE ELUM HS    N/A         64  41  43  W9      29.78R
#CLE ELUM LAKE  N/A         61  43  51  W1      29.75R
#CLIFFDEL 2NW   N/A         69  25  19  W7      N/A
#GLENWOOD       N/A         67  43  42  SW7     29.84S
#MANASTASH CYN  N/A         71  30  22  S2      29.79S
#NELSON         N/A         64  44  48  W3      29.79R
#NELSON 3SW     N/A         62  43  50  N1      29.98R
#NILE           N/A         74  32  21  W5      29.02R
#RONALD 2NW     N/A         63  43  48  NW2     29.73R
#SNOWDEN        N/A         60  24  25  NW5     N/A
#TEANAWAY 4NE   N/A         70  48  46  W8      N/A
#TROUT LAKE 1NE N/A         63  39  41  W9      29.85S
$$

WAZ521-042310-
SIMCOE HIGHLANDS

CITY            SKY/WX      TMP DP  RH  WIND    PRES   REMARKS
#BICKLETON HS   N/A         66  24  20  W12G24  N/A
#CENTERVILLE 4W N/A         66  30  26  NW22    29.60S
#CENTERVILLE 1SWN/A         65  33  30  W25     29.81S
#GOLDENDALE     N/A         69  35  28  W18G30  N/A
#GOLDENDALE 1NE N/A         68  28  22  SW9     N/A
#GOLDENDALE 5WNWN/A         66  34  30  SW21    29.81S
#GOODNOE HILLS  N/A         73  31  21  NW35    N/A
#LYLE 6NE       N/A         61  39  44  W16G33  29.82F
$$

WAZ026-042310-
KITTITAS VALLEY

CITY            SKY/WX      TMP DP  RH  WIND    PRES   REMARKS
ELLENSBURG AP   PTCLDY      76  42  30  NW22G31 29.75F
YTC-OPS AREA    SUNNY       70  25  18  S15G25  29.77F
#ELLENSBURG CWU N/A         75  38  26  NW8     29.65F
#ELLENSBURG 3NE N/A         73  39  29  W3      29.75F
#ELLENSBURG 1E  N/A         82  37  20  S6      N/A
#KITTITAS 4N    N/A         76  39  26  N3      28.07F
#KITTITAS 3S    N/A         73  45  37  S8      29.71F
#THORP 6N       N/A         65  44  46  W22G32  29.75F
$$

WAZ027-042310-
YAKIMA VALLEY

CITY            SKY/WX      TMP DP  RH  WIND    PRES   REMARKS
SUNNYSIDE AP    SUNNY       77  37  24  W10     29.74F
YAKIMA AIRPORT  SUNNY       82  37  20  S16G25  29.74F
#DONALD 2NE     N/A         81   9   6  SW3     28.60F
#GRANDVIEW      N/A         80  21  11  SW5     29.73F
#MABTON         N/A         80  25  13  SW13    29.73F
#NACHES 2SW     N/A         73  38  28  E3      29.78F
#OUTLOOK DOT    N/A         N/A N/A N/A E7      N/A
#SELAH 8E       N/A         77  27  16  SW10    N/A
#TERRACE HTS    N/A         78  36  22  S7      29.68F
#TOPPENISH      N/A         78  31  18  SW12    29.65S
#WAPATO 4NE     N/A         81   9   6  SW3     28.60F
#WEST VALLEY    N/A         76  42  30  SE5     29.69F
#W YAKIMA       N/A         78  40  26  SW3     29.69F
#WHITE SWAN 5E  N/A         78  41  27  SW22G30 29.72F
$$

WAZ028-042310-
LOWER COLUMBIA BASIN...WASHINGTON

CITY            SKY/WX      TMP DP  RH  WIND    PRES   REMARKS
HANFORD         SUNNY       82  26  13  S10     29.75F
PASCO           SUNNY       81  32  17  S8      29.76F
RICHLAND AWOS   SUNNY       84  28  13  S10     29.75F
#BASIN CITY 5SW N/A         78  44  30  S6      29.75F
#BENTON CITY    N/A         79  36  21  S1      29.65F
#CONNELL 5N     N/A         79  29  16  SW7     29.75F
#CONNELL 5NW    N/A         77  34  21  SW7     29.71F
#ELTOPIA 6NW    N/A         75  41  29  S5      28.74F
#KAHLOTUS       N/A         77  33  20  W7      29.74F
#KENNEWICK      N/A         60  41  49  W2      27.45R
#KENNEWICK 3S   N/A         80  34  19  W1      29.75F
#PASCO-BROADMOORN/A         87  28  12  SW3     29.62F
#PATERSON       N/A         77  38  24  S12     29.74F
#PROSSER        N/A         81  27  14  W8      29.72F
#SAGEMOOR 2W    N/A         81  43  26  CALM    29.59F
#TOUCHET 2S     N/A         78  45  31  NE1     29.72F
#WEST PASCO     N/A         83  44  25  S5      29.72F
$$

WAZ029-042310-
FOOTHILLS OF THE BLUES...WASHINGTON

CITY            SKY/WX      TMP DP  RH  WIND    PRES   REMARKS
WALLA WALLA AP  SUNNY       79  31  17  W7      29.77F
#DAYTON SCHOOL  N/A         78  32  19  SW2     29.80F
#LOWDEN 2SE     N/A         79  43  28  NW1     29.71F
#PRESCOTT       N/A         79  33  19  SW3     29.73F
#SUDBURY        N/A         79  N/A N/A CALM    N/A
#WHITMAN COLLEGEN/A         77  35  22  W1      29.78F
#WAITSBURG 5S   N/A         75  40  28  N2      29.83F
#WAITSBURG 8N   N/A         80  22  12  S7      29.56F
#WALLA WALLA 5E N/A         78  42  28  W1      N/A
#WALLA WALLA U  N/A         79  38  23  CALM    29.73F
#WHITMAN MISSIONN/A         79  45  30  CALM    29.75F
$$

WAZ030-042310-
BLUE MOUNTAINS...WASHINGTON

CITY            SKY/WX      TMP DP  RH  WIND    PRES   REMARKS
#DIXIE 5SE      N/A         69  30  23  W2      29.77F
$$

ORZ009-041-WAZ024-042310-
COLUMBIA RIVER GORGE

CITY            SKY/WX      TMP DP  RH  WIND    PRES   REMARKS
HOOD RIVER AP   SUNNY       61  43  51  NW22G30 29.94R
THE DALLES AP   SUNNY       68  42  39  NW12G32 29.85S
#ARLINGTON AIRPON/A         74  37  26  W23     N/A
#ARLINGTON HS   N/A         77  35  22  CALM    29.67F
#CELILO DOT     N/A         73  46  38  SW10    N/A
#MOSIER 1S      N/A         60  33  36  W8      29.88S
#MURDOCK        N/A         63  47  56  W29G43  29.86S

$$

ORZ510-042310-
NORTH CENTRAL OREGON

CITY            SKY/WX      TMP DP  RH  WIND    PRES   REMARKS
#CHENOWITH 1W   N/A         57  42  57  W38     N/A
#COW CYN RST AREN/A         71  25  18  SW9     N/A
#DUFUR 9E       N/A         57  42  57  W16G26  29.87S
#GRASS VALLEY 1SN/A         65  43  45  N18     29.84R
#KENT DOT       N/A         69  38  32  NW12    N/A
#MAUPIN SCHOOL  N/A         75  45  34  NW2     29.83R
#MORO SCHOOL    N/A         66  38  36  CALM    30.18S
#SHANIKO 4NW    N/A         68  31  25  W10     29.88F
#TYGH VALLEY 2NEN/A         74  49  41  W7      29.78S
#WAPANITIA AIRPON/A         72  38  29  NW12    29.81S
#WASCO 5NE      N/A         71  43  36  W9G26   29.81S
$$

ORZ511-042310-
CENTRAL OREGON

CITY            SKY/WX      TMP DP  RH  WIND    PRES   REMARKS
BEND AIRPORT    N/A         N/A N/A N/A MISG    N/A
MADRAS AIRPORT  SUNNY       75  30  19  NW12    29.86S
PRINEVILLE AP   SUNNY       73  25  17  W18G26  29.86S
REDMOND AIRPORT SUNNY       74  27  17  N18G24  29.85S
#BEND 1SW       N/A         71  27  19  W3      N/A
#BEND-AWBREY    N/A         74  29  19  N3      29.78S
#BEND-KIM LN    N/A         76  31  19  SW5     29.84F
#CROOKED RVR RANN/A         72  30  21  N15     29.78
#CULVER         N/A         73  32  22  W9      29.82S
#LAKE BILLY CHINN/A         68   4   8  NW24    29.91S
#POWELL BUTTE 3EN/A         72  27  19  NW7     N/A
#POWELL BUTTE   N/A         74  34  23  N9      29.51S
#PRINEVILLE 3N  N/A         73  35  25  NW8     29.75F
#WARM SPRINGS   N/A         79  36  21  SE8     29.78F

$$


ORZ509-042310-
EAST SLOPES OF OREGON CASCADES

CITY            SKY/WX      TMP DP  RH  WIND    PRES   REMARKS
#BLUE BOX PASS  N/A         56   3  11  NW5     N/A
#CAMP SHERMAN   N/A         69  27  21  W2      29.88R
#LA PINE 4NW    N/A         68  34  28  N5      29.85S
#SISTERS AIRPOR N/A         68  41  37  N17G29  30.17S
#SISTERS ODOT   N/A         69  N/A N/A SE8     N/A
#SISTERS 1NW    N/A         69  27  21  NW12    N/A
#SISTERS 3N     N/A         68  30  24  NW3     29.93S
#SUNRIVER       N/A         68  22  17  SE9     29.70S
#TUMALO 3W      N/A         69  27  21  NW15    29.65S
#WANOGA BUTTE D N/A         58  16  19  NW12    N/A

$$

ORZ044-042310-
LOWER COLUMBIA BASIN...OREGON

CITY            SKY/WX      TMP DP  RH  WIND    PRES   REMARKS
HERMISTON       SUNNY       80  35  20  W9      29.76F
#BOARDMAN 8SW   N/A         78  40  26  W18     29.75F
#ECHO 8SW       N/A         80  43  27  N6      29.77F
#IONE SCHOOL    N/A         75  38  26  W10     29.76S
#IRRIGON 4NW    N/A         81  36  20  SW8     N/A
#UMATILLA SCHOOLN/A         80  50  35  W9      29.81F
#UMATILLA       N/A         80  41  25  W2      29.68F
$$

ORZ507-042310-
NORTHERN FOOTHILLS OF THE BLUES

CITY            SKY/WX      TMP DP  RH  WIND    PRES   REMARKS
PENDLETON AIRPT SUNNY       76  32  20  NW14    29.78F
#ATHENA         N/A         76  39  26  NW2     29.78F
#CAYUSE         N/A         75  37  25  W6      29.73F
#HELIX 6SW      N/A         75  32  21  W15G24  29.78
#HOLDMAN 6E     N/A         76  31  19  N7      29.57F
#M-F FERNDALE   N/A         85  41  21  CALM    29.75F
#M-F GROVE ELEM N/A         76  34  22  N1      29.76F
#M-FREEWATER 5SEN/A         80  45  29  CALM    29.77F
#PENDLETON DNTN N/A         81  39  22  W2      29.78S
#PDT AQUATIC CTRN/A         82  42  24  NW3     29.80S
#PENDLETON 5NE  N/A         78  40  26  CALM    29.75F
#PDT SUNRIDGE   N/A         79  37  22  W3      29.78F
#PENDLETON 7NW  N/A         77  44  31  W7      29.73F
#TUTUILLA       N/A         77  41  28  N2      29.76F
#UMAPINE 2E     N/A         79  44  29  NW1     29.72F
#WESTON SCHOOL  N/A         75  29  18  N1      29.75F

$$

ORZ508-042310-
SOUTHERN FOOTHILLS OF THE BLUES

CITY            SKY/WX      TMP DP  RH  WIND    PRES   REMARKS
LEXINGTON       SUNNY       79  36  21  NW18    29.81F
#AJAX           N/A         67  37  33  W12     29.80S
#CONDON SCHOOL  N/A         70  40  34  CALM    29.81F
#CONDON 5W      N/A         67  37  33  NW14G26 29.83F
#FOSSIL SCHOOL  N/A         73  23  15  W7G25   29.81F
#HEPPNER EOC    N/A         75  36  24  NW7     29.70S
#HEPPNER 4NE    N/A         71  33  25  N8      29.77F
#LEXINGTON 2SE  N/A         76  41  28  W10     29.75F
#MIKKALO        N/A         72  39  30  NW17G24 29.83S
#OLEX 4N        N/A         73  44  35  W8G28   29.79F
#RUGGS 5NE      N/A         76  25  15  W8      30.01S
#RUGGS 2SW      N/A         73  36  26  N10     29.78S

$$

ORZ502-503-042310-
BLUE MOUNTAINS

CITY            SKY/WX      TMP DP  RH  WIND    PRES   REMARKS
MEACHAM         PTCLDY      71  32  24  VRB6    29.86S
#BATTLE MTN DOT N/A         67  44  43  N5      N/A
#HEPPNER 15SE   N/A         67  35  30  N3      29.77F
#LADD CYN SMT   N/A         75  32  21  SE8     N/A
#LONG CREEK HS  N/A         67  37  33  CALM    29.78F
#PIKES PEAK     N/A         66  34  30  SW6     27.99S
#TOLLGATE       N/A         64  36  35  N2      29.85F
#TROY SCHOOL    N/A         86  43  22  E6      29.53F
#UKIAH          N/A         75  35  23  W7      29.84F
#WESTON 4E      N/A         70  34  26  W5      29.71F
$$

ORZ505-042310-
JOHN DAY BASIN

CITY            SKY/WX      TMP DP  RH  WIND    PRES   REMARKS
JOHN DAY        PTCLDY      76  33  21  N6      29.82F
#JOHN DAY KJDY  N/A         79  36  21  SW2     29.86R
#DAYVILLE SCHOOLN/A         80  30  16  NW3     29.75F
#MITCHELL       N/A         75  38  26  N5      29.96F
#MONUMENT HS    N/A         81  31  16  SW3     29.78F
#MT. VERNON 5SE N/A         71  33  25  CALM    29.79F
#WINLOCK        N/A         76  35  22  S10     29.91F
$$

ORZ506-042310-
OCHOCO AND JOHN DAY HIGHLANDS

CITY            SKY/WX      TMP DP  RH  WIND    PRES   REMARKS
#HORSE RIDGE DO N/A         71  16  12  W14     N/A
#KEYES SMT DOT  N/A         70  28  21  SW6     N/A
#PAULINA SCHOOL N/A         77  30  18  SW7     29.82F
#PINE MTN OBS   N/A         62  24  23  W6      N/A
#SENECA         N/A         72  N/A N/A N3      N/A
#SENECA 9NW     N/A         71  33  25  CALM    29.75F
$$

ORZ049-042310-
GRANDE RONDE VALLEY

CITY            SKY/WX      TMP DP  RH  WIND    PRES   REMARKS
LA GRANDE       PTCLDY      75  36  24  CALM    29.78F
#COVE           N/A         77  44  31  N2      29.82F
#COVE SCHOOL    N/A         79  39  24  CALM    29.78F
#ELGIN 3N       N/A         75  31  20  S3      29.78F
#ELGIN 1E       N/A         78  39  25  CALM    N/A
#IMBLER SCHOOL  N/A         75  38  26  CALM    29.76F
#ISLAND CITY 4N N/A         64  47  54  S3      29.98S
#LADD CYN DOT   N/A         76  43  31  NW3     N/A
#LA GRANDE ELEM N/A         75  38  26  E1      29.82F
#UNION 1S       N/A         75  44  33  SW1     29.65F
$$

ORZ050-042310-
WALLOWA COUNTY

CITY            SKY/WX      TMP DP  RH  WIND    PRES   REMARKS
JOSEPH AIRPORT  N/A         73  30  20  N3      29.86F
#ENTERPRISE HS  N/A         74  37  26  CALM    29.84F
#IMNAHA SCHOOL  N/A         82  33  17  N6      29.73F
#IMNAHA 10S     N/A         77  41  28  NE3     29.78F
#JOSEPH 3N      N/A         72  31  22  N2      29.87F
#JOSEPH 3W      N/A         68  28  22  E1      29.73F
#LOSTINE        N/A         77  36  23  CALM    29.55F
#MT HOWARD 8000 N/A         54  26  34  CALM    30.04F
#PROMISE 1S     N/A         71  41  34  SE5     29.83F
#SHEEP RDG 7000 N/A         56  30  37  CALM    29.78F
#WALLOWA SCHOOL N/A         76  32  20  CALM    30.65F



$$



USA.gov is the U.S. government's official web portal to all federal, state and local government web resources and services.